Regional Weather Roundup
Issued by NWS Cleveland, OH

Home | Current Version | Previous Version | Text Only | Print | Product List | Glossary On
Versions: 1 2 3 4 5 6 7 8 9 10 11 12 13 14 15 16 17 18 19 20 21 22 23 24 25 26 27 28 29 30 31 32 33 34 35 36 37 38 39 40 41 42 43 44 45 46 47 48 49 50
000
ASUS41 KCLE 011910
RWRCLE
OHIO REGIONAL WEATHER ROUNDUP
NATIONAL WEATHER SERVICE CLEVELAND, OH
300 PM EDT WED JUL 01 2015

NOTE: "FAIR" INDICATES FEW OR NO CLOUDS BELOW 12,000 FEET WITH NO
SIGNIFICANT WEATHER AND/OR OBSTRUCTIONS TO VISIBILITY.

OHZ001>008-015>018-024>027-034-035-043-044-012000-
   NORTHWEST OHIO

CITY           SKY/WX    TMP DP  RH WIND       PRES   REMARKS
DEFIANCE       PTSUNNY   74  56  53 VRB6      29.92F
FINDLAY        MOSUNNY   73  58  59 W9        29.91F
TOLEDO EXPRESS MOSUNNY   72  56  57 W10       29.91F
TOLEDO EXEC    MOSUNNY   73  57  57 VRB5      29.91F
LIMA           PTSUNNY   72  58  61 NW13      29.93F
$$

OHZ009>014-019>023-028>033-038-089-012000-
   NORTHEAST OHIO

CITY           SKY/WX    TMP DP  RH WIND       PRES   REMARKS
CLE-HOPKINS    PTSUNNY   73  61  65 VRB6      29.92F
CLE-LAKEFRONT  MOSUNNY   70  61  73 NW6       29.91S
CUY CO. ARPT   PTSUNNY   72  59  64 NW12      29.93R
LORAIN-ELYRIA  PTSUNNY   70  62  76 N9        29.91F
ASHTABULA      MOSUNNY   70  59  68 NW6       29.92S
AKRON-CANTON   PTSUNNY   73  61  65 S9        29.91F
WOOSTER        MOSUNNY   72  60  66 W7        29.92F
MANSFIELD      PTSUNNY   71  57  61 VRB5      29.93F
YOUNGSTOWN     PTSUNNY   71  60  68 NW9       29.91F
$$

OHZ042-051>053-060>062-070>072-077>081-012000-
  SOUTHWEST OHIO

CITY           SKY/WX    TMP DP  RH WIND       PRES   REMARKS
CINC-COVINGTON MOSUNNY   78  60  53 W6        29.93F
CINC-LUNKEN    MOSUNNY   78  63  59 S6        29.92F
HAMILTON       MOSUNNY   79  59  50 CALM      29.93F
DAYTON         MOSUNNY   76  60  57 NW7       29.94F
WRIGHT-PAT AFB MOSUNNY   78  58  50 W7        29.92F
DAYTON GENERAL MOSUNNY   77  58  51 NW5       29.93F
WILMINGTON     PTSUNNY   77  57  50 MISG      29.93F
$$

OHZ036-037-039>041-045>050-054>059-063>069-073>076-082>088-012000-
  CENTRAL AND SOUTHEAST OHIO

CITY           SKY/WX    TMP DP  RH WIND       PRES   REMARKS
COLUMBUS       PTSUNNY   75  58  55 NW10      29.92F
OSU AIRPORT    CLOUDY    74  58  57 NW8       29.93F
BOLTON FIELD   PTSUNNY   75  61  60 NW7G18    29.94F
RICKENBACK AFB MOSUNNY   76  58  52 W3        29.93R
NEWARK         MOSUNNY   77  58  51 VRB6      29.92F
MARION         MOSUNNY   74  57  55 W10       29.93S
LANCASTER      MOSUNNY   77  58  51 NW9       29.93F
ZANESVILLE     NOT AVBL
NEW PHILLY     PTSUNNY   72  62  71 NW5       29.92F
$$



USA.gov is the U.S. government's official web portal to all federal, state and local government web resources and services.